Buckhead, Georgia, United States (30625)
Lat: 33.57N, Lon: 83.36W
Wx Zone: GAZ049
Local Info
Past Weather Observations for Today

NOTE: This archive is for the closest National Weather Service station to Buckhead. Information may differ from the station used for current weather conditions.

Click here for Long-term Archive

Time Weather Temperature Dewpoint Humidity Pressure Winds Precip Visibility
22:35
Overcast
63°F / 17°C 61°F / 16°C 94% 30.21 in
(1023 mb)
Calm - 7SM
22:15
Overcast
63°F / 17°C 61°F / 16°C 94% 30.21 in
(1023 mb)
Calm - 7SM
21:55
Overcast
63°F / 17°C 61°F / 16°C 94% 30.21 in
(1023 mb)
Calm - 7SM
21:35
Overcast
63°F / 17°C 61°F / 16°C 94% 30.18 in
(1022 mb)
Calm - 7SM
21:15
Overcast
63°F / 17°C 61°F / 16°C 94% 30.18 in
(1022 mb)
Calm - 7SM
20:55
Overcast
61°F / 16°C 61°F / 16°C 100% 30.18 in
(1022 mb)
Calm - 7SM
20:35
Overcast
61°F / 16°C 61°F / 16°C 100% 30.18 in
(1022 mb)
Calm - 7SM
20:15
Overcast
61°F / 16°C 61°F / 16°C 100% 30.18 in
(1022 mb)
Calm - 7SM
19:55
Overcast
61°F / 16°C 61°F / 16°C 100% 30.18 in
(1022 mb)
Calm - 7SM
19:35
Overcast
61°F / 16°C 59°F / 15°C 94% 30.18 in
(1022 mb)
Calm - 7SM
19:15
Overcast
59°F / 15°C 59°F / 15°C 100% 30.18 in
(1022 mb)
Calm - 7SM
18:55
Overcast
59°F / 15°C 57°F / 14°C 94% 30.18 in
(1022 mb)
Calm - 7SM
18:35
Overcast
57°F / 14°C 55°F / 13°C 94% 30.18 in
(1022 mb)
Calm - 7SM
18:15
Overcast
55°F / 13°C 55°F / 13°C 100% 30.15 in
(1021 mb)
Calm - 7SM
17:55
Overcast
55°F / 13°C 54°F / 12°C 94% 30.15 in
(1021 mb)
Calm - 7SM
17:35
Overcast
54°F / 12°C 52°F / 11°C 94% 30.15 in
(1021 mb)
Calm - 7SM
17:15
Overcast
52°F / 11°C 50°F / 10°C 94% 30.15 in
(1021 mb)
Calm - 7SM
16:55
Overcast
52°F / 11°C 48°F / 9°C 88% 30.15 in
(1021 mb)
Calm - 7SM
16:35
Overcast
50°F / 10°C 46°F / 8°C 88% 30.15 in
(1021 mb)
N 3.5 mph
(N 6 kph)
- 7SM
16:15
Overcast
50°F / 10°C 46°F / 8°C 88% 30.15 in
(1021 mb)
Calm - 7SM
15:55
Overcast
50°F / 10°C 46°F / 8°C 88% 30.15 in
(1021 mb)
Calm - 10SM
15:35
Overcast
50°F / 10°C 46°F / 8°C 88% 30.15 in
(1021 mb)
N 3.5 mph
(N 6 kph)
- 10SM
15:15
Overcast
50°F / 10°C 46°F / 8°C 88% 30.15 in
(1021 mb)
Calm - 10SM
14:55
Overcast
50°F / 10°C 46°F / 8°C 88% 30.15 in
(1021 mb)
Calm - 10SM
14:35
Overcast
50°F / 10°C 46°F / 8°C 88% 30.15 in
(1021 mb)
Calm - 7SM
14:15
Overcast
50°F / 10°C 46°F / 8°C 88% 30.15 in
(1021 mb)
Calm - 7SM
13:55
Overcast
50°F / 10°C 46°F / 8°C 88% 30.18 in
(1022 mb)
Calm - 7SM
13:35
Overcast
50°F / 10°C 48°F / 9°C 94% 30.18 in
(1022 mb)
Calm - 7SM
13:15
Overcast
50°F / 10°C 50°F / 10°C 100% 30.18 in
(1022 mb)
Calm - 7SM
12:55
Overcast
50°F / 10°C 50°F / 10°C 100% 30.18 in
(1022 mb)
Calm - 7SM
12:35
Overcast
50°F / 10°C 50°F / 10°C 100% 30.18 in
(1022 mb)
NE 3.5 mph
(NE 6 kph)
- 7SM
12:15
Overcast
50°F / 10°C 50°F / 10°C 100% 30.18 in
(1022 mb)
NNE 3.5 mph
(NNE 6 kph)
- 7SM
11:55
Overcast
Fog And Mist
50°F / 10°C 50°F / 10°C 100% 30.18 in
(1022 mb)
Calm - 5SM
11:35
Overcast
Fog And Mist
50°F / 10°C 50°F / 10°C 100% 30.21 in
(1023 mb)
Calm - 5SM
11:15
Overcast
Fog And Mist
50°F / 10°C 50°F / 10°C 100% 30.21 in
(1023 mb)
Calm - 5SM
10:55
Overcast
Fog And Mist
50°F / 10°C 50°F / 10°C 100% 30.21 in
(1023 mb)
Calm - 4SM
10:35
Overcast
Fog And Mist
50°F / 10°C 50°F / 10°C 100% 30.18 in
(1022 mb)
Calm - 3SM
10:15
Overcast
Fog And Mist
50°F / 10°C 50°F / 10°C 100% 30.18 in
(1022 mb)
N 3.5 mph
(N 6 kph)
- 2 1/2SM
09:55
Overcast
Fog And Mist
50°F / 10°C 50°F / 10°C 100% 30.18 in
(1022 mb)
N 3.5 mph
(N 6 kph)
- 1 3/4SM
09:35
Overcast
Fog And Mist
50°F / 10°C 50°F / 10°C 100% 30.18 in
(1022 mb)
Calm - 1 1/4SM
09:15
Overcast
Fog And Mist
50°F / 10°C 50°F / 10°C 100% 30.18 in
(1022 mb)
Calm - 1SM
08:55
Overcast
Light Rain
52°F / 11°C 52°F / 11°C 100% 30.18 in
(1022 mb)
Calm - 1SM
08:35
Overcast
Light Rain
54°F / 12°C 52°F / 11°C 94% 30.18 in
(1022 mb)
N 3.5 mph
(N 6 kph)
- 1 1/4SM
08:15
Overcast
Fog And Mist
54°F / 12°C 52°F / 11°C 94% 30.18 in
(1022 mb)
Calm - 1SM
07:55
Overcast
Fog And Mist
54°F / 12°C 54°F / 12°C 100% 30.15 in
(1021 mb)
NE 3.5 mph
(NE 6 kph)
- 1 1/2SM
07:35
Overcast
Fog And Mist
54°F / 12°C 52°F / 11°C 94% 30.15 in
(1021 mb)
Calm - 3/4SM
07:15
Overcast
Fog
54°F / 12°C 54°F / 12°C 100% 30.15 in
(1021 mb)
Calm - 1/2SM
06:55
Overcast
Fog
54°F / 12°C 54°F / 12°C 100% 30.15 in
(1021 mb)
Calm - 1/2SM
06:35
Overcast
Fog
54°F / 12°C 54°F / 12°C 100% 30.15 in
(1021 mb)
Calm - 1/2SM
06:15
Overcast
Fog
54°F / 12°C 54°F / 12°C 100% 30.15 in
(1021 mb)
Calm - 1/2SM
05:55
Overcast
Fog
54°F / 12°C 54°F / 12°C 100% 30.15 in
(1021 mb)
Calm - 1/2SM
05:35
Overcast
Fog
54°F / 12°C 54°F / 12°C 100% 30.12 in
(1020 mb)
Calm - 1/2SM
05:15
Overcast
Fog
54°F / 12°C 54°F / 12°C 100% 30.12 in
(1020 mb)
Calm - 1/2SM
04:55
Overcast
Fog And Mist
54°F / 12°C 54°F / 12°C 100% 30.12 in
(1020 mb)
Calm - 3/4SM
04:35
Overcast
Fog And Mist
54°F / 12°C 54°F / 12°C 100% 30.12 in
(1020 mb)
Calm - 1SM
04:15
Overcast
Fog And Mist
54°F / 12°C 54°F / 12°C 100% 30.09 in
(1019 mb)
Calm - 3/4SM
03:55
Overcast
Fog And Mist
54°F / 12°C 54°F / 12°C 100% 30.09 in
(1019 mb)
Calm - 1 1/4SM
03:35
Overcast
Fog And Mist
54°F / 12°C 54°F / 12°C 100% 30.09 in
(1019 mb)
Calm - 4SM
03:15
Overcast
Fog And Mist
55°F / 13°C 54°F / 12°C 94% 30.09 in
(1019 mb)
Calm - 4SM
02:55
Overcast
Fog And Mist
55°F / 13°C 54°F / 12°C 94% 30.09 in
(1019 mb)
Calm - 5SM
02:35
Overcast
Fog And Mist
55°F / 13°C 55°F / 13°C 100% 30.09 in
(1019 mb)
Calm - 3/4SM
02:15
Overcast
Fog
55°F / 13°C 55°F / 13°C 100% 30.09 in
(1019 mb)
Calm - 1/2SM
01:55
Overcast
Fog
55°F / 13°C 55°F / 13°C 100% 30.09 in
(1019 mb)
Calm - 1/2SM
01:35
Overcast
Fog And Mist
55°F / 13°C 55°F / 13°C 100% 30.09 in
(1019 mb)
Calm - 3/4SM
01:15
Overcast
Fog And Mist
55°F / 13°C 55°F / 13°C 100% 30.09 in
(1019 mb)
Calm - 3/4SM
00:55
Overcast
Fog
55°F / 13°C 55°F / 13°C 100% 30.09 in
(1019 mb)
Calm - 1/4SM
00:35
Overcast
Fog
59°F / 15°C 59°F / 15°C 100% 30.09 in
(1019 mb)
Calm - 1/2SM
00:15
Overcast
Fog
61°F / 16°C 59°F / 15°C 94% 30.12 in
(1020 mb)
Calm - 1/2SM
Time Weather Temperature Dewpoint Humidity Pressure Winds Precip Visibility


Weather for websites

WeatherForYou.com, LLC is not responsible for any damages or problems caused by this service. Current weather conditions are obtained from the closest station including government and personal stations which may have varying degrees of accuracy. Weather forecasts are derived from the NOAA NDFD. Like all things, this site belongs to Jesus Christ... He just trusts me to maintain it. If you have any questions or comments email webmaster@weatherforyou.com

Copyright © 2014, WeatherForYou.com LLC. All rights reserved.